Year,Month,Day,Hour,Minute,Value (Times are PST for windspeed in km/hr)
2020,03,13,00,00,9.60
2020,03,13,00,01,9.60
2020,03,13,09,03,10.70
2020,03,13,09,04,10.90
2020,03,13,09,05,10.80
2020,03,13,09,06,7.20
2020,03,13,09,07,7.50
2020,03,13,09,08,8.40
2020,03,13,09,09,8.10
2020,03,13,09,10,12.70
2020,03,13,09,11,10.70
2020,03,13,09,12,7.40
2020,03,13,09,13,7.90
2020,03,13,09,14,5.40
2020,03,13,09,15,5.80
2020,03,13,09,16,9.40
2020,03,13,09,17,13.40
2020,03,13,09,18,9.80
2020,03,13,09,19,11.70
2020,03,13,09,20,12.60
2020,03,13,09,21,11.60
2020,03,13,09,22,13.60
2020,03,13,09,23,15.60
2020,03,13,09,24,10.90
2020,03,13,09,25,8.40
2020,03,13,09,26,11.80
2020,03,13,09,27,9.00
2020,03,13,09,28,7.50
2020,03,13,09,29,8.50
2020,03,13,09,30,6.00
2020,03,13,09,31,5.00
2020,03,13,09,32,9.80
2020,03,13,09,33,7.60
2020,03,13,09,34,9.10
2020,03,13,09,35,7.70
2020,03,13,09,36,14.80
2020,03,13,09,37,10.30
2020,03,13,09,38,5.40
2020,03,13,09,39,6.00
2020,03,13,09,40,5.60
2020,03,13,09,41,5.30
2020,03,13,09,42,5.40
2020,03,13,09,43,7.00
2020,03,13,09,44,7.30
2020,03,13,09,45,7.20
2020,03,13,09,46,13.20
2020,03,13,09,47,6.60
2020,03,13,09,48,8.30
2020,03,13,09,49,6.60
2020,03,13,09,50,12.20
2020,03,13,09,51,16.60
2020,03,13,09,52,10.10
2020,03,13,09,53,13.20
2020,03,13,09,54,11.50
2020,03,13,09,55,6.40
2020,03,13,09,56,9.00
2020,03,13,09,57,12.90
2020,03,13,09,58,6.90
2020,03,13,09,59,6.90
2020,03,13,10,00,12.90
2020,03,13,10,01,8.30
2020,03,13,10,02,9.50
2020,03,13,10,03,12.30
2020,03,13,10,04,8.60
2020,03,13,10,05,11.10
2020,03,13,10,06,7.80
2020,03,13,10,07,11.80
2020,03,13,10,08,11.70
2020,03,13,10,09,16.30
2020,03,13,10,10,10.00
2020,03,13,10,11,6.70
2020,03,13,10,12,8.80
2020,03,13,10,13,12.50
2020,03,13,10,14,16.90
2020,03,13,10,15,14.90
2020,03,13,10,16,9.90
2020,03,13,10,17,9.00
2020,03,13,10,18,9.10
2020,03,13,10,19,10.50
2020,03,13,10,20,7.80
2020,03,13,10,21,6.00
2020,03,13,10,22,14.70
2020,03,13,10,23,18.50
2020,03,13,10,24,21.70
2020,03,13,10,25,17.40
2020,03,13,10,26,14.40
2020,03,13,10,27,22.20
2020,03,13,10,28,22.20
2020,03,13,10,29,23.60
2020,03,13,10,30,19.40
2020,03,13,10,31,16.00
2020,03,13,10,32,15.10
2020,03,13,10,33,15.10
2020,03,13,10,34,12.30
2020,03,13,10,35,17.50
2020,03,13,10,36,14.70
2020,03,13,10,37,14.20
2020,03,13,10,38,17.50
2020,03,13,10,39,10.80
2020,03,13,10,40,15.60
2020,03,13,10,41,11.70
2020,03,13,10,42,16.50
2020,03,13,10,43,20.20
2020,03,13,10,44,14.60
2020,03,13,10,45,9.10
2020,03,13,10,46,11.40
2020,03,13,10,47,10.70
2020,03,13,10,48,15.20
2020,03,13,10,49,16.00
2020,03,13,10,50,14.40
2020,03,13,10,51,11.10
2020,03,13,10,52,16.80
2020,03,13,10,53,15.00
2020,03,13,10,54,9.30
2020,03,13,10,55,10.20
2020,03,13,10,56,18.10
2020,03,13,10,57,17.80
2020,03,13,10,58,13.30
2020,03,13,10,59,10.20
2020,03,13,11,00,16.40
2020,03,13,11,01,12.70
2020,03,13,11,02,11.70
2020,03,13,11,03,9.70
2020,03,13,11,04,17.70
2020,03,13,11,05,16.80
2020,03,13,11,06,9.30
2020,03,13,11,07,18.50
2020,03,13,11,08,16.80
2020,03,13,11,09,11.80
2020,03,13,11,10,13.20
2020,03,13,11,11,10.50
2020,03,13,11,12,15.20
2020,03,13,11,13,9.20
2020,03,13,11,14,15.90
2020,03,13,11,15,13.50
2020,03,13,11,16,8.60
2020,03,13,11,17,13.50
2020,03,13,11,18,20.60
2020,03,13,11,19,20.40
2020,03,13,11,20,6.70
2020,03,13,11,21,5.10
2020,03,13,11,22,10.30
2020,03,13,11,23,6.40
2020,03,13,11,24,6.60
2020,03,13,11,25,8.00
2020,03,13,11,26,15.10
2020,03,13,11,27,8.90
2020,03,13,11,28,9.20
2020,03,13,11,29,9.70
2020,03,13,11,30,14.80
2020,03,13,11,31,9.60
2020,03,13,11,32,13.90
2020,03,13,11,33,11.20
2020,03,13,11,34,14.00
2020,03,13,11,35,9.00
2020,03,13,11,36,8.10
2020,03,13,11,37,10.50
2020,03,13,11,38,13.60
2020,03,13,11,39,9.60
2020,03,13,11,40,12.10
2020,03,13,11,41,11.00
2020,03,13,11,42,6.40
2020,03,13,11,43,13.30
2020,03,13,11,44,17.50
2020,03,13,11,45,10.80
2020,03,13,11,46,7.50
2020,03,13,11,47,19.90
2020,03,13,11,48,16.00
2020,03,13,11,49,15.10
2020,03,13,11,50,9.00
2020,03,13,11,51,8.10
2020,03,13,11,52,18.40
2020,03,13,11,53,16.90
2020,03,13,11,54,7.10
2020,03,13,11,55,17.10
2020,03,13,11,56,15.60
2020,03,13,11,57,17.50
2020,03,13,11,58,17.10
2020,03,13,11,59,9.00
2020,03,13,12,00,5.60
2020,03,13,12,01,7.20
2020,03,13,12,02,9.80
2020,03,13,12,03,11.10
2020,03,13,12,04,11.80
2020,03,13,12,05,10.10
2020,03,13,12,06,11.30
2020,03,13,12,07,11.50
2020,03,13,12,08,13.90
2020,03,13,12,09,15.60
2020,03,13,12,10,15.80
2020,03,13,12,11,11.70
2020,03,13,12,12,19.20
2020,03,13,12,13,10.60
2020,03,13,12,14,13.40
2020,03,13,12,15,16.90
2020,03,13,12,16,12.60
2020,03,13,12,17,12.20
2020,03,13,12,18,13.60
2020,03,13,12,19,6.80
2020,03,13,12,20,8.70
2020,03,13,12,21,9.10
2020,03,13,12,22,7.00
2020,03,13,12,23,8.10
2020,03,13,12,24,12.90
2020,03,13,12,25,16.40
2020,03,13,12,26,13.90
2020,03,13,12,27,17.20
2020,03,13,12,28,16.50
2020,03,13,12,29,18.10
2020,03,13,12,30,15.10
2020,03,13,12,31,16.20
2020,03,13,12,32,14.30
2020,03,13,12,33,14.60
2020,03,13,12,34,13.80
2020,03,13,12,35,9.10
2020,03,13,12,36,6.50
2020,03,13,12,37,12.70
2020,03,13,12,38,19.80
2020,03,13,12,39,18.10
2020,03,13,12,40,19.30
2020,03,13,12,41,16.50
2020,03,13,12,42,11.10
2020,03,13,12,43,11.60
2020,03,13,12,44,12.50
2020,03,13,12,45,10.50
2020,03,13,12,46,21.00
2020,03,13,12,47,14.90
2020,03,13,12,48,20.80
2020,03,13,12,49,17.70
2020,03,13,12,50,11.70
2020,03,13,12,51,17.50
2020,03,13,12,52,10.50
2020,03,13,12,53,15.00
2020,03,13,12,54,12.40
2020,03,13,12,55,8.80
2020,03,13,12,56,9.50
2020,03,13,12,57,9.80
2020,03,13,12,58,11.30
2020,03,13,12,59,11.30
2020,03,13,13,00,18.50
2020,03,13,13,01,15.30
2020,03,13,13,02,14.50
2020,03,13,13,03,20.30
2020,03,13,13,04,8.10
2020,03,13,13,05,17.90
2020,03,13,13,06,18.70
2020,03,13,13,07,16.90
2020,03,13,13,08,13.50
2020,03,13,13,09,15.70
2020,03,13,13,10,16.20
2020,03,13,13,11,13.50
2020,03,13,13,12,13.00
2020,03,13,13,13,15.90
2020,03,13,13,14,11.40
2020,03,13,13,15,11.60
2020,03,13,13,16,16.50
2020,03,13,13,17,18.10
2020,03,13,13,18,16.70
2020,03,13,13,19,15.90
2020,03,13,13,20,14.50
2020,03,13,13,21,12.60
2020,03,13,13,22,14.00
2020,03,13,13,23,5.60
2020,03,13,13,24,8.40
2020,03,13,13,25,14.50
2020,03,13,13,26,14.80
2020,03,13,13,27,12.50
2020,03,13,13,28,13.90
2020,03,13,13,29,12.30
2020,03,13,13,30,12.10
2020,03,13,13,31,12.20
2020,03,13,13,32,12.80
2020,03,13,13,33,11.40
2020,03,13,13,34,14.30
2020,03,13,13,35,17.40
2020,03,13,13,36,12.70
2020,03,13,13,37,12.60
2020,03,13,13,38,7.30
2020,03,13,13,39,12.50
2020,03,13,13,40,10.20
2020,03,13,13,41,12.70
2020,03,13,13,42,15.20
2020,03,13,13,43,21.20
2020,03,13,13,44,22.00
2020,03,13,13,45,16.20
2020,03,13,13,46,15.40
2020,03,13,13,47,14.00
2020,03,13,13,48,17.10
2020,03,13,13,49,11.00
2020,03,13,13,50,22.70
2020,03,13,13,51,18.10
2020,03,13,13,52,14.20
2020,03,13,13,53,13.60
2020,03,13,13,54,15.20
2020,03,13,13,55,10.60
2020,03,13,13,56,11.50
2020,03,13,13,57,16.20
2020,03,13,13,58,11.30
2020,03,13,13,59,8.10
2020,03,13,14,00,14.90
2020,03,13,14,01,15.40
2020,03,13,14,02,19.80
2020,03,13,14,03,17.20
2020,03,13,14,04,20.00
2020,03,13,14,05,13.40
2020,03,13,14,06,9.30
2020,03,13,14,07,14.20
2020,03,13,14,08,14.90
2020,03,13,14,09,17.20
2020,03,13,14,10,9.80
2020,03,13,14,11,10.80
2020,03,13,14,12,13.60
2020,03,13,14,13,12.50
2020,03,13,14,14,12.50
2020,03,13,14,15,11.00
2020,03,13,14,16,11.50
2020,03,13,14,17,15.20
2020,03,13,14,18,15.20
2020,03,13,14,19,13.00
2020,03,13,14,20,7.40
2020,03,13,14,21,8.70
2020,03,13,14,22,13.80
2020,03,13,14,23,13.80
2020,03,13,14,24,12.70
2020,03,13,14,25,16.50
2020,03,13,14,26,17.00
2020,03,13,14,27,17.30
2020,03,13,14,28,13.90
2020,03,13,14,29,15.10
2020,03,13,14,30,12.00
2020,03,13,14,31,24.00
2020,03,13,14,32,20.60
2020,03,13,14,33,14.40
2020,03,13,14,34,13.30
2020,03,13,14,35,11.70
2020,03,13,14,36,19.20
2020,03,13,14,37,17.60
2020,03,13,14,38,9.30
2020,03,13,14,39,14.30
2020,03,13,14,40,22.90
2020,03,13,14,41,12.70
2020,03,13,14,42,8.50
2020,03,13,14,43,12.40
2020,03,13,14,44,14.90
2020,03,13,14,45,10.20
2020,03,13,14,46,14.30
2020,03,13,14,47,14.60
2020,03,13,14,48,11.30
2020,03,13,14,49,12.30
2020,03,13,14,50,20.00
2020,03,13,14,51,18.00
2020,03,13,14,52,18.60
2020,03,13,14,53,24.40
2020,03,13,14,54,17.90
2020,03,13,14,55,13.40
2020,03,13,14,56,12.00
2020,03,13,14,57,9.70
2020,03,13,14,58,10.80
2020,03,13,14,59,9.70
2020,03,13,15,00,10.40
2020,03,13,15,01,12.60
2020,03,13,15,02,11.20
2020,03,13,15,03,20.90
2020,03,13,15,04,13.60
2020,03,13,15,05,12.70
2020,03,13,15,06,9.10
2020,03,13,15,07,17.00
2020,03,13,15,08,18.50
2020,03,13,15,09,14.30
2020,03,13,15,10,11.60
2020,03,13,15,11,14.00
2020,03,13,15,12,17.20
2020,03,13,15,13,10.80
2020,03,13,15,14,10.20
2020,03,13,15,15,14.30
2020,03,13,15,16,13.40
2020,03,13,15,17,13.60
2020,03,13,15,18,18.30
2020,03,13,15,19,17.60
2020,03,13,15,20,10.70
2020,03,13,15,21,15.10
2020,03,13,15,22,9.00
2020,03,13,15,23,15.10
2020,03,13,15,24,17.00
2020,03,13,15,25,13.50
2020,03,13,15,26,15.40
2020,03,13,15,27,11.20
2020,03,13,15,28,9.50
2020,03,13,15,29,15.70
2020,03,13,15,30,15.70
2020,03,13,15,31,11.00
2020,03,13,15,32,12.50
2020,03,13,15,33,14.30
2020,03,13,15,34,12.70
2020,03,13,15,35,12.00
2020,03,13,15,36,13.80
2020,03,13,15,37,11.50
2020,03,13,15,38,9.70
2020,03,13,15,39,8.80
2020,03,13,15,40,10.10
2020,03,13,15,41,17.80
2020,03,13,15,42,15.40
2020,03,13,15,43,11.70
2020,03,13,15,44,3.30
2020,03,13,15,45,6.30
2020,03,13,15,46,8.60
2020,03,13,15,47,8.40
2020,03,13,15,48,12.70
2020,03,13,15,49,12.00
2020,03,13,15,50,10.40
2020,03,13,15,51,11.80
2020,03,13,15,52,14.20
2020,03,13,15,53,10.60
2020,03,13,15,54,8.20
2020,03,13,15,55,8.50
2020,03,13,15,56,10.10
2020,03,13,15,57,21.50
2020,03,13,15,58,15.20
2020,03,13,15,59,8.00
2020,03,13,16,00,13.90
2020,03,13,16,01,11.60
2020,03,13,16,02,13.60
2020,03,13,16,03,14.00
2020,03,13,16,04,10.00
2020,03,13,16,05,12.70
2020,03,13,16,06,6.00
2020,03,13,16,07,15.80
2020,03,13,16,08,15.00
2020,03,13,16,09,15.10
2020,03,13,16,10,16.60
2020,03,13,16,11,14.60
2020,03,13,16,12,10.40
2020,03,13,16,13,7.50
2020,03,13,16,14,13.50
2020,03,13,16,15,13.00
2020,03,13,16,16,14.50
2020,03,13,16,17,12.30
2020,03,13,16,18,13.30
2020,03,13,16,19,7.50
2020,03,13,16,20,12.00
2020,03,13,16,21,11.60
2020,03,13,16,22,12.70
2020,03,13,16,23,13.00
2020,03,13,16,24,17.60
2020,03,13,16,25,14.90
2020,03,13,16,26,16.80
2020,03,13,16,27,16.00
2020,03,13,16,28,13.10
2020,03,13,16,29,9.00
2020,03,13,16,30,7.00
2020,03,13,16,31,5.80
2020,03,13,16,32,11.70
2020,03,13,16,33,11.20
2020,03,13,16,34,13.60
2020,03,13,16,35,13.00
2020,03,13,16,36,11.10
2020,03,13,16,37,19.70
2020,03,13,16,38,16.20
2020,03,13,16,39,11.70
2020,03,13,16,40,12.10
2020,03,13,16,41,12.60
2020,03,13,16,42,7.30
2020,03,13,16,43,14.80
2020,03,13,16,44,12.60
2020,03,13,16,45,10.50
2020,03,13,16,46,13.00
2020,03,13,16,47,9.10
2020,03,13,16,48,12.80
2020,03,13,16,49,9.50
2020,03,13,16,50,14.10
2020,03,13,16,51,10.30
2020,03,13,16,52,10.90
2020,03,13,16,53,12.40
2020,03,13,16,54,8.30
2020,03,13,16,55,6.90
2020,03,13,16,56,15.10
2020,03,13,16,57,19.50
2020,03,13,16,58,16.70
2020,03,13,16,59,13.50
2020,03,13,17,00,12.00
2020,03,13,17,01,9.80
2020,03,13,17,02,7.30
2020,03,13,17,03,10.40
2020,03,13,17,04,10.70
2020,03,13,17,05,16.30
2020,03,13,17,06,11.50
2020,03,13,17,07,12.60
2020,03,13,17,08,16.40
2020,03,13,17,09,8.30
2020,03,13,17,10,13.20
2020,03,13,17,11,18.40
2020,03,13,17,12,10.60
2020,03,13,17,13,4.90
2020,03,13,17,14,13.90
2020,03,13,17,15,16.20
2020,03,13,17,16,13.80
2020,03,13,17,17,15.90
2020,03,13,17,18,11.00
2020,03,13,17,19,13.90
2020,03,13,17,20,13.90
2020,03,13,17,21,13.10
2020,03,13,17,22,11.20
2020,03,13,17,23,14.60
2020,03,13,17,24,10.50
2020,03,13,17,25,11.00
2020,03,13,17,26,11.50
2020,03,13,17,27,8.90
2020,03,13,17,28,12.40
2020,03,13,17,29,16.80
2020,03,13,17,30,11.10
2020,03,13,17,31,21.20
2020,03,13,17,32,10.80
2020,03,13,17,33,12.00
2020,03,13,17,34,14.40
2020,03,13,17,35,10.80
2020,03,13,17,36,7.30
2020,03,13,17,37,12.50
2020,03,13,17,38,10.60
2020,03,13,17,39,16.00
2020,03,13,17,40,9.00
2020,03,13,17,41,9.70
2020,03,13,17,42,5.40
2020,03,13,17,43,10.50
2020,03,13,17,44,10.20
2020,03,13,17,45,12.90
2020,03,13,17,46,16.50
2020,03,13,17,47,6.50
2020,03,13,17,48,9.70
2020,03,13,17,49,7.70
2020,03,13,17,50,12.80
2020,03,13,17,51,17.30
2020,03,13,17,52,13.00
2020,03,13,17,53,11.00
2020,03,13,17,54,12.20
2020,03,13,17,55,9.10
2020,03,13,17,56,9.30
2020,03,13,17,57,15.30
2020,03,13,17,58,10.40
2020,03,13,17,59,17.80
2020,03,13,18,00,12.90
2020,03,13,18,01,11.40
2020,03,13,18,02,12.20
2020,03,13,18,03,9.00
2020,03,13,18,04,17.30
2020,03,13,18,05,15.00
2020,03,13,18,06,17.00
2020,03,13,18,07,16.60
2020,03,13,18,08,10.40
2020,03,13,18,09,10.10
2020,03,13,18,10,9.20
2020,03,13,18,11,12.30
2020,03,13,18,12,16.90
2020,03,13,18,13,15.10
2020,03,13,18,14,12.30
2020,03,13,18,15,13.90
2020,03,13,18,16,11.30
2020,03,13,18,17,5.00
2020,03,13,18,18,12.30
2020,03,13,18,19,15.20
2020,03,13,18,20,14.30
2020,03,13,18,21,16.90
2020,03,13,18,22,6.80
2020,03,13,18,23,9.30
2020,03,13,18,24,7.60
2020,03,13,18,25,11.10
2020,03,13,18,26,9.00
2020,03,13,18,27,10.70
2020,03,13,18,28,8.80
2020,03,13,18,29,8.60
2020,03,13,18,30,16.80
2020,03,13,18,31,12.80
2020,03,13,18,32,14.70
2020,03,13,18,33,11.90
2020,03,13,18,34,11.00
2020,03,13,18,35,12.90
2020,03,13,18,36,11.30
2020,03,13,18,37,11.10
2020,03,13,18,38,13.20
2020,03,13,18,39,13.40
2020,03,13,18,40,15.50
2020,03,13,18,41,17.80
2020,03,13,18,42,17.40
2020,03,13,18,43,12.70
2020,03,13,18,44,17.90
2020,03,13,18,45,12.80
2020,03,13,18,46,14.20
2020,03,13,18,47,12.20
2020,03,13,18,48,16.60
2020,03,13,18,49,12.70
2020,03,13,18,50,10.80
2020,03,13,18,51,6.30
2020,03,13,18,52,7.80
2020,03,13,18,53,8.70
2020,03,13,18,54,15.10
2020,03,13,18,55,16.10
2020,03,13,18,56,16.10
2020,03,13,18,57,16.10
2020,03,13,18,58,16.10
2020,03,13,18,59,16.10
2020,03,13,19,00,16.10
2020,03,13,19,01,16.10
2020,03,13,19,02,16.10
2020,03,13,19,03,16.10
2020,03,13,19,04,16.10
2020,03,13,19,55,32.70
2020,03,13,19,56,50.70
2020,03,13,19,57,45.10
2020,03,13,19,58,41.80
2020,03,13,19,59,39.30
2020,03,13,20,00,41.60
2020,03,13,20,01,42.10
2020,03,13,20,02,44.00
2020,03,13,20,03,46.20
2020,03,13,20,04,38.30
2020,03,13,20,05,29.80
2020,03,13,20,06,28.70
2020,03,13,20,07,32.00
2020,03,13,20,08,36.00
2020,03,13,20,09,41.60
2020,03,13,20,10,29.40
2020,03,13,20,11,39.90
2020,03,13,20,12,34.30
2020,03,13,20,13,30.40
2020,03,13,20,14,49.70
2020,03,13,20,15,48.90
2020,03,13,20,16,48.00
2020,03,13,20,17,39.60
2020,03,13,20,18,35.80
2020,03,13,20,19,44.70
2020,03,13,20,20,46.70
2020,03,13,20,21,46.90
2020,03,13,20,22,42.20
2020,03,13,20,23,43.10
2020,03,13,20,24,38.60
2020,03,13,20,25,42.60
2020,03,13,20,26,47.80
2020,03,13,20,27,52.70
2020,03,13,20,28,39.40
2020,03,13,20,29,34.50
2020,03,13,20,30,24.90
2020,03,13,20,31,28.50
2020,03,13,20,32,45.60
2020,03,13,20,33,60.00
2020,03,13,20,34,50.10
2020,03,13,20,35,39.70
2020,03,13,20,36,42.90
2020,03,13,20,37,44.20
2020,03,13,20,38,37.70
2020,03,13,20,39,46.40
2020,03,13,20,40,52.50
2020,03,13,20,41,45.10
2020,03,13,20,42,46.20
2020,03,13,20,43,30.20
2020,03,13,20,44,36.60
2020,03,13,20,45,47.80
2020,03,13,20,46,31.20
2020,03,13,20,47,42.90
2020,03,13,20,48,44.60
2020,03,13,20,49,42.90
2020,03,13,20,50,36.00
2020,03,13,20,51,31.50
2020,03,13,20,52,33.40
2020,03,13,20,53,40.00
2020,03,13,20,54,42.30
2020,03,13,20,55,29.70
2020,03,13,20,56,44.60
2020,03,13,20,57,52.70
2020,03,13,20,58,42.00
2020,03,13,20,59,44.10
2020,03,13,21,00,42.10
2020,03,13,21,01,49.30
2020,03,13,21,02,34.30
2020,03,13,21,03,42.00
2020,03,13,21,04,47.10
2020,03,13,21,05,51.40
2020,03,13,21,06,56.60
2020,03,13,21,07,49.20
2020,03,13,21,08,38.10
2020,03,13,21,09,45.10
2020,03,13,21,10,38.10
2020,03,13,21,11,50.60
2020,03,13,21,12,39.00
2020,03,13,21,13,44.60
2020,03,13,21,14,48.10
2020,03,13,21,15,50.40
2020,03,13,21,16,51.80
2020,03,13,21,17,39.10
2020,03,13,21,18,44.30
2020,03,13,21,19,41.20
2020,03,13,21,20,35.70
2020,03,13,21,21,35.90
2020,03,13,21,22,35.20
2020,03,13,21,23,33.60
2020,03,13,21,24,30.60
2020,03,13,21,25,49.00
2020,03,13,21,26,48.00
2020,03,13,21,27,43.90
2020,03,13,21,28,45.10
2020,03,13,21,29,38.50
2020,03,13,21,30,44.20
2020,03,13,21,31,40.60
2020,03,13,21,32,31.40
2020,03,13,21,33,46.80
2020,03,13,21,34,41.40
2020,03,13,21,35,27.90
2020,03,13,21,36,40.60
2020,03,13,21,37,32.80
2020,03,13,21,38,30.30
2020,03,13,21,39,26.20
2020,03,13,21,40,36.90
2020,03,13,21,41,41.30
2020,03,13,21,42,47.10
2020,03,13,21,43,52.50
2020,03,13,21,44,41.00
2020,03,13,21,45,51.50
2020,03,13,21,46,49.40
2020,03,13,21,47,45.10
2020,03,13,21,48,36.70
2020,03,13,21,49,42.10
2020,03,13,21,50,38.10
2020,03,13,21,51,35.60
2020,03,13,21,52,48.20
2020,03,13,21,53,38.00
2020,03,13,21,54,36.20
2020,03,13,21,55,36.80
2020,03,13,21,56,36.90
2020,03,13,21,57,37.30
2020,03,13,21,58,35.00
2020,03,13,21,59,36.70
2020,03,13,22,00,39.30
2020,03,13,22,01,36.20
2020,03,13,22,02,52.70
2020,03,13,22,03,46.80
2020,03,13,22,04,50.00
2020,03,13,22,05,42.00
2020,03,13,22,06,56.60
2020,03,13,22,07,46.20
2020,03,13,22,08,43.20
2020,03,13,22,09,42.30
2020,03,13,22,10,45.10
2020,03,13,22,11,43.70
2020,03,13,22,12,45.80
2020,03,13,22,13,40.90
2020,03,13,22,14,54.80
2020,03,13,22,15,53.30
2020,03,13,22,16,43.50
2020,03,13,22,17,34.40
2020,03,13,22,18,36.20
2020,03,13,22,19,55.10
2020,03,13,22,20,50.50
2020,03,13,22,21,52.50
2020,03,13,22,22,49.70
2020,03,13,22,23,42.90
2020,03,13,22,24,34.50
2020,03,13,22,25,46.40
2020,03,13,22,26,42.60
2020,03,13,22,27,33.80
2020,03,13,22,28,55.60
2020,03,13,22,29,53.70
2020,03,13,22,30,52.70
2020,03,13,22,31,50.60
2020,03,13,22,32,46.00
2020,03,13,22,33,45.20
2020,03,13,22,34,39.30
2020,03,13,22,35,41.20
2020,03,13,22,36,43.90
2020,03,13,22,37,43.70
2020,03,13,22,38,55.40
2020,03,13,22,39,54.90
2020,03,13,22,40,52.90
2020,03,13,22,41,52.90
2020,03,13,22,42,53.80
2020,03,13,22,43,51.00
2020,03,13,22,44,54.40
2020,03,13,22,45,54.90
2020,03,13,22,46,59.10
2020,03,13,22,47,57.90
2020,03,13,22,48,57.90
2020,03,13,22,49,57.90
2020,03,13,22,50,57.90
2020,03,13,22,51,57.90
2020,03,13,22,52,57.90
2020,03,13,22,53,57.90
2020,03,13,22,54,57.90
2020,03,13,22,55,57.90
2020,03,13,22,56,57.90
